Tracking 30685 objects as of 17-Jun-2025
HD Live streaming from Space Station
objects crossing your sky now

STARLINK-3931

Track STARLINK-3931 now!
10-day predictions
STARLINK-3931 is classified as:


NORAD ID: 52548
Int'l Code: 2022-051R
Perigee: 546.1 km
Apogee: 547.7 km
Inclination: 53.2 °
Period: 95.4 minutes
Semi major axis: 6917 km
RCS: Unknown
Launch date: May 13, 2022
Source: United States (US)
Launch site: AIR FORCE WESTERN TEST RANGE (AFWTR)
Your satellite tracking list
Your tracking list is empty




NASA's NSSDC Master Catalog

Two Line Element Set (TLE):
1 52548U 22051R   25167.50595787  .00000317  00000-0  38029-4 0  9998
2 52548  53.2169 244.0662 0001169  94.9297 265.1829 15.08837860171269
Source of the keplerian elements: AFSPC